Voltar ao catálogo

MOLNIYA 1-52

AtivoComunicaçõesHEO
NORAD 13012·PAYLOAD·🇷🇺 Russia

Lançado Dec 23, 1981 de Baikonur Cosmodrome

Loading…

Próximas Passagens (próximas 24 horas)

TLE

AtualizadoSource: Space-Track

Época: Sep 14, 2026, 12:15 UTC

1 13012U 81123A   26257.51090197  .00001174  00000-0  50371-3 0  9998
2 13012  61.7536  52.2009 7474417 278.5662  11.0240  2.00428112327689

Acompanhe MOLNIYA 1-52 em tempo real com AllMySat

Download on the App Store